When you browse on this site, cookies collect data to enhance your experience and personalize the content and advertising you see.
Visit our Privacy Policy to learn more. By continuing to use the site, you agree to this use of cookies and data.
  • En España
  • Lista de países
  • Para 7 días
  • Temperatura del agua
  • Mapa Satelital
  • El tiempo en el mapa
  • Informadores
  • user-avatar
    Iniciar sesión

    Tiempo cada hora Kokchetaw

    Hoy, 19 Junio, Miércoles

    Tiempo Temperatura Precipitaciones Viento Presión Humedad
    00:00 +10°C° 0 mm 2 mps 733 mmHg 91%
    01:00 +10°C° 0 mm 2 mps 733 mmHg 91%
    02:00 +10°C° 0 mm 2 mps 733 mmHg 91%
    03:00 +9°C° 0 mm 2 mps 733 mmHg 91%
    04:00 +9°C° 0 mm 2 mps 734 mmHg 91%
    05:00 +9°C° 0 mm 3 mps 734 mmHg 90%
    06:00 +10°C° 0 mm 3 mps 735 mmHg 86%
    07:00 +11°C° 0 mm 3 mps 735 mmHg 83%
    08:00 +13°C° 0 mm 3 mps 735 mmHg 80%
    09:00 +14°C° 0 mm 3 mps 735 mmHg 73%
    10:00 +14°C° 0 mm 4 mps 736 mmHg 66%
    11:00 +15°C° 0 mm 4 mps 736 mmHg 59%
    12:00 +17°C° 0 mm 4 mps 736 mmHg 57%
    13:00 +17°C° 0 mm 4 mps 736 mmHg 55%
    14:00 +17°C° 0 mm 3 mps 737 mmHg 53%
    15:00 +18°C° 0 mm 3 mps 737 mmHg 53%
    16:00 +18°C° 0 mm 4 mps 737 mmHg 52%
    17:00 +18°C° 0 mm 4 mps 737 mmHg 52%
    18:00 +17°C° 0 mm 3 mps 737 mmHg 58%
    19:00 +16°C° 0 mm 2 mps 738 mmHg 64%
    20:00 +15°C° 0 mm 2 mps 738 mmHg 70%
    21:00 +14°C° 0 mm 2 mps 738 mmHg 72%
    22:00 +13°C° 0 mm 2 mps 738 mmHg 75%
    23:00 +12°C° 0 mm 2 mps 738 mmHg 77%

    Mañana, 20 Junio, Jueves

    Tiempo Temperatura Precipitaciones Viento Presión Humedad
    00:00 +12°C° 0 mm 2 mps 738 mmHg 77%
    01:00 +12°C° 0 mm 2 mps 738 mmHg 78%
    02:00 +10°C° 0 mm 2 mps 738 mmHg 78%
    03:00 +10°C° 0 mm 2 mps 739 mmHg 78%
    04:00 +10°C° 0 mm 2 mps 739 mmHg 78%
    05:00 +10°C° 0 mm 2 mps 739 mmHg 78%
    06:00 +13°C° 0 mm 2 mps 739 mmHg 73%
    07:00 +14°C° 0 mm 3 mps 740 mmHg 68%
    08:00 +17°C° 0 mm 3 mps 740 mmHg 63%
    09:00 +18°C° 0 mm 3 mps 740 mmHg 58%
    10:00 +19°C° 0 mm 2 mps 740 mmHg 54%
    11:00 +20°C° 0 mm 2 mps 740 mmHg 50%
    12:00 +20°C° 0 mm 2 mps 739 mmHg 48%
    13:00 +21°C° 0 mm 2 mps 739 mmHg 46%
    14:00 +23°C° 0 mm 2 mps 739 mmHg 44%
    15:00 +23°C° 0 mm 2 mps 739 mmHg 44%
    16:00 +23°C° 0 mm 2 mps 739 mmHg 45%
    17:00 +23°C° 0 mm 2 mps 739 mmHg 45%
    18:00 +21°C° 0 mm 2 mps 739 mmHg 51%
    19:00 +21°C° 0 mm 1 mps 739 mmHg 56%
    20:00 +20°C° 0 mm 1 mps 739 mmHg 62%
    21:00 +19°C° 0 mm 1 mps 739 mmHg 64%
    22:00 +17°C° 0 mm 2 mps 739 mmHg 66%
    23:00 +16°C° 0 mm 2 mps 738 mmHg 68%

    Pasado mañana, 21 Junio, Viernes

    Tiempo Temperatura Precipitaciones Viento Presión Humedad
    00:00 +16°C° 0 mm 2 mps 738 mmHg 68%
    01:00 +15°C° 0 mm 2 mps 738 mmHg 68%
    02:00 +14°C° 0 mm 3 mps 738 mmHg 68%
    03:00 +14°C° 0 mm 3 mps 738 mmHg 69%
    04:00 +14°C° 0 mm 3 mps 738 mmHg 71%
    05:00 +13°C° 0 mm 3 mps 738 mmHg 72%
    06:00 +16°C° 0 mm 3 mps 738 mmHg 69%
    07:00 +18°C° 0 mm 4 mps 738 mmHg 66%
    08:00 +20°C° 0 mm 4 mps 738 mmHg 62%
    09:00 +21°C° 0 mm 4 mps 738 mmHg 58%
    10:00 +22°C° 0 mm 4 mps 738 mmHg 53%
    11:00 +25°C° 0 mm 4 mps 738 mmHg 48%
    12:00 +25°C° 0 mm 4 mps 737 mmHg 47%
    13:00 +26°C° 0 mm 4 mps 737 mmHg 45%
    14:00 +26°C° 0 mm 4 mps 737 mmHg 43%
    15:00 +26°C° 0 mm 4 mps 737 mmHg 44%
    16:00 +26°C° 0 mm 4 mps 736 mmHg 46%
    17:00 +26°C° 0 mm 4 mps 736 mmHg 47%
    18:00 +25°C° 0 mm 4 mps 736 mmHg 53%
    19:00 +24°C° 0 mm 3 mps 736 mmHg 59%
    20:00 +21°C° 0 mm 3 mps 736 mmHg 65%
    21:00 +20°C° 0.5 mm 3 mps 736 mmHg 72%
    22:00 +19°C° 0.5 mm 3 mps 736 mmHg 78%
    23:00 +17°C° 0.5 mm 3 mps 736 mmHg 85%

    22 Junio, Sábado

    Tiempo Temperatura Precipitaciones Viento Presión Humedad
    00:00 +17°C° 0.1 mm 3 mps 736 mmHg 88%
    01:00 +16°C° 0.1 mm 3 mps 736 mmHg 91%
    02:00 +14°C° 0.1 mm 3 mps 736 mmHg 94%
    03:00 +14°C° 0 mm 3 mps 736 mmHg 94%
    04:00 +13°C° 0 mm 4 mps 737 mmHg 94%
    05:00 +13°C° 0 mm 4 mps 737 mmHg 93%
    06:00 +14°C° 0 mm 4 mps 738 mmHg 84%
    07:00 +15°C° 0 mm 5 mps 738 mmHg 74%
    08:00 +16°C° 0 mm 5 mps 739 mmHg 64%
    09:00 +17°C° 0 mm 6 mps 739 mmHg 60%
    10:00 +17°C° 0 mm 6 mps 739 mmHg 55%
    11:00 +19°C° 0 mm 6 mps 739 mmHg 51%
    12:00 +17°C° 0 mm 6 mps 740 mmHg 50%
    13:00 +17°C° 0 mm 6 mps 740 mmHg 50%
    14:00 +17°C° 0 mm 6 mps 740 mmHg 50%
    15:00 +18°C° 0 mm 7 mps 740 mmHg 48%
    16:00 +17°C° 0 mm 6 mps 740 mmHg 50%
    17:00 +17°C° 0 mm 6 mps 740 mmHg 52%
    18:00 +16°C° 0 mm 5 mps 740 mmHg 57%
    19:00 +15°C° 0 mm 4 mps 741 mmHg 63%
    20:00 +15°C° 0 mm 2 mps 741 mmHg 69%
    21:00 +14°C° 0 mm 2 mps 741 mmHg 72%
    22:00 +13°C° 0 mm 2 mps 741 mmHg 75%
    23:00 +12°C° 0 mm 2 mps 741 mmHg 77%

    23 Junio, Domingo

    Tiempo Temperatura Precipitaciones Viento Presión Humedad
    00:00 +12°C° 0 mm 2 mps 741 mmHg 78%
    01:00 +10°C° 0 mm 2 mps 741 mmHg 78%
    02:00 +9°C° 0 mm 2 mps 741 mmHg 79%
    03:00 +10°C° 0 mm 2 mps 741 mmHg 78%
    04:00 +10°C° 0 mm 2 mps 741 mmHg 78%
    05:00 +10°C° 0 mm 2 mps 741 mmHg 78%
    06:00 +12°C° 0 mm 2 mps 741 mmHg 73%
    07:00 +12°C° 0 mm 3 mps 741 mmHg 68%
    08:00 +14°C° 0 mm 3 mps 741 mmHg 64%
    09:00 +14°C° 0 mm 3 mps 741 mmHg 64%
    10:00 +14°C° 0 mm 3 mps 741 mmHg 64%
    11:00 +16°C° 0 mm 3 mps 740 mmHg 65%
    12:00 +16°C° 0.7 mm 3 mps 740 mmHg 71%
    13:00 +16°C° 0.7 mm 3 mps 740 mmHg 76%
    14:00 +15°C° 0.7 mm 4 mps 739 mmHg 82%
    15:00 +17°C° 0.2 mm 3 mps 739 mmHg 82%
    16:00 +17°C° 0.2 mm 2 mps 739 mmHg 81%
    17:00 +19°C° 0.2 mm 1 mps 738 mmHg 80%
    18:00 +19°C° 0.6 mm 1 mps 738 mmHg 83%
    19:00 +19°C° 0.6 mm 1 mps 738 mmHg 86%
    20:00 +19°C° 0.6 mm 1 mps 738 mmHg 89%
    21:00 +18°C° 1 mm 2 mps 738 mmHg 91%
    22:00 +17°C° 1 mm 2 mps 738 mmHg 93%
    23:00 +17°C° 1 mm 2 mps 738 mmHg 95%

    24 Junio, Lunes

    Tiempo Temperatura Precipitaciones Viento Presión Humedad
    00:00 +17°C° 0.4 mm 2 mps 737 mmHg 95%
    01:00 +17°C° 0.4 mm 2 mps 737 mmHg 94%
    02:00 +17°C° 0.4 mm 2 mps 737 mmHg 94%
    03:00 +17°C° 1 mm 3 mps 737 mmHg 95%
    04:00 +17°C° 1 mm 3 mps 737 mmHg 96%
    05:00 +17°C° 1 mm 3 mps 737 mmHg 97%
    06:00 +17°C° 1.9 mm 3 mps 737 mmHg 97%
    07:00 +18°C° 1.9 mm 3 mps 737 mmHg 97%
    08:00 +18°C° 1.9 mm 3 mps 737 mmHg 97%
    09:00 +19°C° 0.4 mm 3 mps 737 mmHg 94%
    10:00 +20°C° 0.4 mm 4 mps 737 mmHg 91%
    11:00 +21°C° 0.4 mm 4 mps 737 mmHg 88%
    12:00 +22°C° 0.7 mm 3 mps 737 mmHg 84%
    13:00 +24°C° 0.7 mm 3 mps 737 mmHg 81%
    14:00 +25°C° 0.7 mm 3 mps 737 mmHg 77%
    15:00 +25°C° 0.5 mm 3 mps 737 mmHg 77%
    16:00 +26°C° 0.5 mm 3 mps 737 mmHg 77%
    17:00 +26°C° 0.5 mm 3 mps 737 mmHg 77%
    18:00 +25°C° 0.3 mm 3 mps 737 mmHg 81%
    19:00 +24°C° 0.3 mm 3 mps 737 mmHg 85%
    20:00 +23°C° 0.3 mm 2 mps 737 mmHg 89%
    21:00 +21°C° 0 mm 3 mps 737 mmHg 91%
    22:00 +20°C° 0 mm 3 mps 738 mmHg 93%
    23:00 +19°C° 0 mm 3 mps 738 mmHg 95%
    Mostrar más